Regional Weather Roundup
Issued by NWS

Home | Current Version | Previous Version | Text Only | Print | Product List | Glossary On
Versions: 1 2 3 4 5 6 7 8 9 10 11 12 13 14 15 16 17 18 19 20 21 22 23 24 25 26 27 28 29 30 31 32 33 34 35 36 37 38 39 40 41 42 43 44 45 46 47 48 49 50
000
ASUS43 KLMK 270702
RWRKY
KENTUCKY REGIONAL WEATHER ROUNDUP
NATIONAL WEATHER SERVICE LOUISVILLE KY
200 AM EST SAT DEC 27 2014

NOTE "FAIR" INDICATES FEW OR NO CLOUDS BELOW 12,000 FEET
WITH NO SIGNIFICANT WEATHER AND/OR OBSTRUCTIONS TO VISIBILITY.

KYZ001>023-026-027-061>063-070>075-270800-
WESTERN AND SOUTH CENTRAL KENTUCKY

CITY           SKY/WX    TMP DP  RH WIND       PRES   REMARKS
PADUCAH        CLOUDY    50  39  66 S3        30.14F
HENDERSON      CLOUDY    48  36  61 S9        30.15R
OWENSBORO      CLOUDY    47  39  73 S6        30.17F
HOPKINSVILLE   CLOUDY    46  38  74 SE3       30.19S
BOWLING GREEN  PTCLDY    44  36  73 SE3       30.21F
GLASGOW        NOT AVBL
$$

KYZ024-025-028>034-038-045-046-053-270800-
NORTH CENTRAL KENTUCKY

CITY           SKY/WX    TMP DP  RH WIND       PRES   REMARKS
LOUISVILLE/SDF MOCLDY    49  33  54 S5        30.18S
LOUISVILLE/LOU PTCLDY    46  33  60 S3        30.19S
FORT KNOX      CLOUDY    47  36  65 S9        30.17S
$$

KYZ035>037-039>044-047>052-055>060-089>105-270800-
NORTHEAST KENTUCKY

CITY           SKY/WX    TMP DP  RH WIND       PRES   REMARKS
LEXINGTON      CLOUDY    45  34  65 S8        30.20F
COVINGTON      MOCLDY    44  31  60 SW5       30.18S
FRANKFORT      CLOUDY    48  32  53 S8        30.18S
$$

KYZ054-064>069-076>088-106>120-270800-
SOUTHEAST KENTUCKY

CITY           SKY/WX    TMP DP  RH WIND       PRES   REMARKS
JACKSON        CLOUDY    46  27  47 SW3       30.22R
LONDON         CLOUDY    44  31  60 CALM      30.23R
SOMERSET       NOT AVBL
MIDDLESBORO    CLOUDY    41  36  81 CALM      30.25R
MONTICELLO     CLOUDY    44  37  76 CALM      30.26R
$$



USA.gov is the U.S. government's official web portal to all federal, state and local government web resources and services.